SL-3 DEB

基本信息
目录编号:
20348
目录名称:
SL-3 DEB
国际标识:
1972-049C
轨道中心:
EARTH
物体状态:
在轨
发射日期:
1972-06-30 UTC
轨道信息
数据来源: 国际轨道数据
星历时间: 2026-09-10T01:10:31+0800
半长轴: 7264.08km
偏心率: 0.0049094
轨道倾角: 81.242°
近地点辐角: 153.059°
升交点赤经: 339.226°
平近点角: 207.314°
近地点: 850.28km
远地点: 921.606km
周期: 102.691分钟
每日圈数: 14.022707
详细信息
发射场:
PKMTR
轨道高度:
LEO
数据来源:
AOE Integration Group
参考系:
TEME
时间系统:
UTC
历元类型:
SGP4
2D轨道图
3D轨道图
轨道高度分析图
轨道倾角分析图
轨道综合分析图
查看轨道综合分析图